Eilat, Israel

6:37 AM IDT on September 01, 2016 (GMT +0300)
Eilat

Weather History for LLET - May, 2014

Change the Weather History Date:

Wednesday, May 7, 2014

  Actual Average Record
Temperature  
Mean Temperature 87 °F -  
Max Temperature 95 °F 94 °F 105 °F (2004)
Min Temperature 79 °F 73 °F 64 °F (2000)
Cooling Degree Days 22    
Growing Degree Days 37 (Base 50)    
Moisture  
Dew Point 55 °F    
Average Humidity 31    
Maximum Humidity 48    
Minimum Humidity 12    
Precipitation  
Precipitation 0.04 in -3.06 in - ()
Sea Level Pressure  
Sea Level Pressure 29.74 in    
Wind  
Wind Speed 9 mph ()    
Max Wind Speed 18 mph    
Max Gust Speed -    
Visibility 4.8 miles    
Events Thunderstorm    
Averages and records for this station are not official NWS values.
T = Trace of Precipitation, MM = Missing Value Source: Averaged Metar Reports

Daily Weather History Graph

Daily Weather History Graph

Search for Another Location

Airport or City:

Trip Planner

Search our weather history database for the weather conditions in past years. The results will help you decide how hot, cold, wet, or windy it might be!

Date:

Astronomy

May. 07, 2014 Rise Set
Actual Time 5:53 AM IDT 7:20 PM IDT
Civil Twilight 5:27 AM IDT 7:46 PM IDT
Nautical Twilight 4:57 AM IDT 8:16 PM IDT
Astronomical Twilight 4:25 AM IDT 8:48 PM IDT
Moon 12:38 PM IDT (5/7) 1:07 AM IDT (5/7)
Length of Visible Light 14h 18m
Length of Day
13h 27m
First Quarter, 52% of the Moon is Illuminated
May 7
First Quarter
May 14
Full
May 21
Last Quarter
May 28
New
Jun 5
First Quarter

Hourly Weather History & Observations

Time (IDT) Temp. Heat Index Dew Point Humidity Pressure Visibility Wind Dir Wind Speed Gust Speed Precip Events Conditions
12:00 AM 86 °F - 49 °F 18% 29.81 in 6 mi NNE 5.8 mph - -  
3:00 AM 84 °F - 51 °F 21% 29.77 in - NNE 4.6 mph - -  
5:30 AM 80.6 °F 80.8 °F 57.2 °F 45% 29.77 in - NNE 12.7 mph - N/A   Clear
5:50 AM 80.6 °F 80.8 °F 57.2 °F 45% 29.77 in - NE 12.7 mph - N/A   Clear
6:00 AM 80 °F - 56 °F 32% 29.77 in 4 mi NNE 3.5 mph - -   Haze
6:50 AM 78.8 °F - 57.2 °F 47% 29.77 in 4.3 mi NE 12.7 mph - N/A   Unknown
7:50 AM 80.6 °F 81.1 °F 59.0 °F 48% 29.80 in 4.3 mi NE 15.0 mph - N/A   Unknown
8:50 AM 84.2 °F 83.8 °F 59.0 °F 42% 29.80 in 4.3 mi ENE 15.0 mph - N/A   Unknown
9:00 AM 85 °F - 57 °F 29% 29.79 in - NE 5.8 mph - -  
9:50 AM 86.0 °F 85.4 °F 59.0 °F 40% 29.80 in 4.3 mi NE 17.3 mph - N/A   Unknown
10:50 AM 87.8 °F 87.1 °F 59.0 °F 38% 29.77 in 4.3 mi ENE 18.4 mph - N/A   Unknown
11:50 AM 91.4 °F 90.7 °F 59.0 °F 34% 29.77 in 5.0 mi ENE 17.3 mph - N/A   Unknown
12:00 PM 93 °F - 56 °F 20% 29.74 in - ENE 9.2 mph - -  
12:50 PM 93.2 °F 92.6 °F 59.0 °F 32% 29.74 in 5.6 mi ENE 13.8 mph - N/A   Unknown
1:50 PM 93.2 °F 92.6 °F 59.0 °F 32% 29.71 in - ENE 11.5 mph - N/A   Clear
2:50 PM 93.2 °F 92.6 °F 59.0 °F 32% 29.71 in - ENE 10.4 mph - N/A   Clear
3:00 PM 94 °F - 54 °F 17% 29.68 in - NE 4.6 mph - -  
3:50 PM 93.2 °F 91.9 °F 57.2 °F 30% 29.68 in - NNE 8.1 mph - N/A   Clear
4:50 PM 91.4 °F - 51.8 °F 26% 29.68 in - NNW 13.8 mph - N/A   Clear
5:50 PM 91.4 °F - 50.0 °F 24% 29.68 in - East 5.8 mph - N/A   Clear
6:00 PM 91 °F - 45 °F 12% 29.66 in - NNE 2.3 mph - -  
6:50 PM 91.4 °F - 48.2 °F 23% 29.71 in - Variable 1.2 mph - N/A   Clear
7:50 PM 87.8 °F - 50.0 °F 27% 29.71 in - NW 10.4 mph - N/A   Clear
8:50 PM 86.0 °F 84.9 °F 57.2 °F 37% 29.71 in 6.2 mi North 11.5 mph - N/A Thunderstorm Unknown
9:00 PM 85 °F - 53 °F 23% 29.72 in - NNW 2.3 mph - -  
9:50 PM 86.0 °F 84.9 °F 57.2 °F 37% 29.71 in - NNW 8.1 mph - N/A   Clear
10:50 PM 82.4 °F 81.4 °F 53.6 °F 37% 29.71 in - NE 8.1 mph - N/A   Clear